Starlink deployment rail

Debris
NORAD ID: 47437 Int'l Des: 2021-006 Owner: SPXS Country: US
LEOCIRCULARRETROGRADESSO

关于 Starlink deployment rail

正在加载描述...

实时位置

正在加载3D地球...

即将过境

高度历史

Altitude vs Time

uPlot chart will show altitude changes over time

两行轨道根数

1 47437U 21006AA 25308.83825201 .00005561 00000-0 20484-3 0 9999
2 47437 97.2579 350.5536 0007520 285.4667 74.5742 15.28204289265020
Epoch: Nov 4, 2025 • Age: 6 hours

当前状态

高度 497.3 km
速度 7.62 km/s
星下点 -48.89°S, 90.39°E
发射日期 Jan 24, 2021
运行时间 4.7 years
类型 debris

技术详情

分类 Component
质量 100.00 kg
干质量 100.00 kg
总质量 100.00 kg
长度 7.00 m
直径 0.02 m
跨度 7.00 m
形状 Cyl
制造商 SPXS
阶段状态 In Orbit
所有者/国家 SPXS/US

大型星座

Loading constellations...